Location: �clusier
(49.9361°N, 2.7869°E)
Time: 01:21:38
(UTC+00:00)

Cosmos 1331 Rocket - Pass Details

Date: 23 October 2021
Orbit: 748 x 778 km, 74.0° (Epoch: 07 December)

Event Time Altitude Azimuth Distance (km) Brightness Sun altitude
Rises 05:15:07 0° 342° (NNW) 3,228 7.0 -11.7°
Reaches altitude 10° 05:18:13 10° 1° (N) 2,304 6.5 -11.2°
Maximum altitude 05:21:50 19° 45° (NE) 1,785 6.4 -10.6°
Drops below altitude 10° 05:25:28 10° 89° (E) 2,310 8.1 -10.0°
Sets 05:28:34 0° 108° (ESE) 3,238 9.2 -9.5°
